| time (UTC) | temp F | wind direction | speed knots | gust knots | rain 1hr in | rain 24hr in | rain mn in | humidity % | barometer mb |
| 20260901000015 | 82 | 302 | 1.7 | 4.3 | 0.00 | 0.00 | 0.00 | 48 | 1009.4 |
| 20260831234503 | 83 | 303 | 1.7 | 4.3 | 0.00 | 0.00 | 0.00 | 47 | 1009.3 |
| 20260831233014 | 84 | 283 | 2.6 | 5.2 | 0.00 | 0.00 | 0.00 | 45 | 1009.3 |
| 20260831231502 | 84 | 301 | 2.6 | 4.3 | 0.00 | 0.00 | 0.00 | 44 | 1009.4 |
| 20260831230013 | 84 | 217 | 3.5 | 7.8 | 0.00 | 0.00 | 0.00 | 46 | 1009.3 |
| 20260831224512 | 84 | 250 | 4.3 | 7.8 | 0.00 | 0.00 | 0.00 | 47 | 1009.2 |
| 20260831223012 | 85 | 311 | 2.6 | 7.0 | 0.00 | 0.00 | 0.00 | 50 | 1009.3 |
| 20260831221529 | 86 | 270 | 1.7 | 7.0 | 0.00 | 0.00 | 0.00 | 50 | 1009.0 |
| 20260831220128 | 85 | 309 | 2.6 | 7.0 | 0.00 | 0.00 | 0.00 | 48 | 1009.0 |
| 20260831214624 | 86 | 332 | 1.7 | 8.7 | 0.00 | 0.00 | 0.00 | 48 | 1008.8 |
| 20260831213013 | 85 | 265 | 2.6 | 7.0 | 0.00 | 0.00 | 0.00 | 48 | 1008.9 |
| 20260831211516 | 86 | 340 | 2.6 | 8.7 | 0.00 | 0.00 | 0.00 | 48 | 1009.0 |
| 20260831210010 | 85 | 311 | 5.2 | 9.6 | 0.00 | 0.00 | 0.00 | 47 | 1008.9 |
| 20260831204515 | 85 | 254 | 5.2 | 9.6 | 0.00 | 0.00 | 0.00 | 50 | 1009.0 |
| 20260831203010 | 85 | 281 | 4.3 | 7.8 | 0.00 | 0.00 | 0.00 | 50 | 1009.0 |
| 20260831201512 | 85 | 311 | 4.3 | 8.7 | 0.00 | 0.00 | 0.00 | 50 | 1008.9 |
| 20260831200005 | 83 | 41 | 3.5 | 6.1 | 0.00 | 0.00 | 0.00 | 54 | 1008.7 |
| 20260831194521 | 84 | 304 | 3.5 | 7.0 | 0.00 | 0.00 | 0.00 | 54 | 1008.8 |
| 20260831193126 | 84 | 286 | 6.1 | 9.6 | 0.00 | 0.00 | 0.00 | 51 | 1008.8 |
| 20260831191506 | 84 | 307 | 2.6 | 11.3 | 0.00 | 0.00 | 0.00 | 51 | 1008.8 |
| 20260831190010 | 83 | 347 | 3.5 | 10.4 | 0.00 | 0.00 | 0.00 | 57 | 1008.7 |
| 20260831184508 | 83 | 292 | 7.0 | 9.6 | 0.00 | 0.00 | 0.00 | 56 | 1008.8 |
| 20260831183130 | 82 | 17 | 3.5 | 10.4 | 0.00 | 0.00 | 0.00 | 60 | 1008.6 |
| 20260831181628 | 81 | 328 | 4.3 | 10.4 | 0.00 | 0.00 | 0.00 | 65 | 1008.6 |
| 20260831180010 | 81 | 246 | 3.5 | 8.7 | 0.00 | 0.00 | 0.00 | 68 | 1008.7 |
| 20260831174508 | 81 | 304 | 3.5 | 7.8 | 0.00 | 0.00 | 0.00 | 68 | 1008.8 |
| 20260831173006 | 80 | 261 | 1.7 | 7.0 | 0.00 | 0.00 | 0.00 | 73 | 1008.9 |
| 20260831171515 | 80 | 307 | 3.5 | 8.7 | 0.00 | 0.00 | 0.00 | 73 | 1009.0 |
| 20260831170013 | 80 | 49 | 2.6 | 8.7 | 0.00 | 0.00 | 0.00 | 76 | 1009.1 |
| 20260831164510 | 79 | 319 | 2.6 | 5.2 | 0.00 | 0.00 | 0.00 | 78 | 1009.0 |
| 20260831163004 | 78 | 250 | 4.3 | 9.6 | 0.00 | 0.00 | 0.00 | 79 | 1008.8 |
| 20260831161627 | 77 | 304 | 3.5 | 7.0 | 0.00 | 0.00 | 0.00 | 81 | 1008.7 |
| 20260831160023 | 76 | 309 | 4.3 | 9.6 | 0.00 | 0.00 | 0.00 | 84 | 1008.7 |
| 20260831154508 | 75 | 301 | 2.6 | 9.6 | 0.00 | 0.00 | 0.00 | 86 | 1008.7 |
| 20260831153014 | 74 | 337 | 1.7 | 6.1 | 0.00 | 0.00 | 0.00 | 89 | 1008.6 |
| 20260831151626 | 74 | 290 | 1.7 | 7.0 | 0.00 | 0.00 | 0.00 | 91 | 1008.3 |
| 20260831150004 | 72 | 313 | 5.2 | 10.4 | 0.00 | 0.00 | 0.00 | 92 | 1008.0 |
| 20260831144521 | 72 | 306 | 5.2 | 9.6 | 0.00 | 0.00 | 0.00 | 93 | 1007.7 |
| 20260831143016 | 71 | 291 | 4.3 | 8.7 | 0.00 | 0.00 | 0.00 | 94 | 1007.7 |
| 20260831141507 | 71 | 321 | 1.7 | 3.5 | 0.00 | 0.00 | 0.00 | 94 | 1007.5 |
| 20260831140125 | 71 | 244 | 0.9 | 4.3 | 0.00 | 0.00 | 0.00 | 94 | 1007.5 |
| 20260831134516 | 70 | 298 | 1.7 | 3.5 | 0.00 | 0.00 | 0.00 | 94 | 1007.0 |
| 20260831133012 | 70 | 201 | 0.0 | 0.9 | 0.00 | 0.00 | 0.00 | 94 | 1006.9 |
| 20260831131517 | 69 | 201 | 0.0 | 0.9 | 0.00 | 0.00 | 0.00 | 94 | 1007.0 |
| 20260831130003 | 69 | 201 | 0.9 | 1.7 | 0.00 | 0.00 | 0.00 | 94 | 1007.0 |
| 20260831124509 | 68 | 201 | 0.0 | 0.0 | 0.00 | 0.00 | 0.00 | 94 | 1006.7 |
| 20260831123011 | 68 | 201 | 0.0 | 0.0 | 0.00 | 0.00 | 0.00 | 94 | 1006.3 |
| 20260831121510 | 66 | 201 | 0.0 | 0.9 | 0.00 | 0.00 | 0.00 | 94 | 1006.1 |
| 20260831120021 | 66 | 201 | 0.0 | 1.7 | 0.00 | 0.00 | 0.00 | 94 | 1005.8 |
| 20260831114514 | 66 | 201 | 0.0 | 0.0 | 0.00 | 0.00 | 0.00 | 93 | 1005.7 |
| 20260831113013 | 66 | 201 | 0.0 | 0.9 | 0.00 | 0.00 | 0.00 | 93 | 1005.7 |
| 20260831111629 | 67 | 201 | 0.0 | 2.6 | 0.00 | 0.00 | 0.00 | 93 | 1005.7 |
| 20260831110008 | 67 | 201 | 1.7 | 3.5 | 0.00 | 0.00 | 0.00 | 93 | 1005.5 |
| 20260831104505 | 67 | 201 | 1.7 | 3.5 | 0.00 | 0.00 | 0.00 | 93 | 1005.5 |
| 20260831103128 | 67 | 134 | 0.9 | 2.6 | 0.00 | 0.00 | 0.00 | 93 | 1005.4 |
| 20260831101509 | 67 | 134 | 0.0 | 1.7 | 0.00 | 0.00 | 0.00 | 92 | 1005.2 |
| 20260831100024 | 68 | 134 | 0.9 | 2.6 | 0.00 | 0.00 | 0.00 | 92 | 1005.1 |
| 20260831094523 | 68 | 134 | 0.9 | 2.6 | 0.00 | 0.00 | 0.00 | 92 | 1005.0 |
| 20260831093015 | 68 | 153 | 0.9 | 4.3 | 0.00 | 0.00 | 0.00 | 92 | 1005.2 |
| 20260831091505 | 68 | 198 | 0.9 | 3.5 | 0.00 | 0.00 | 0.00 | 92 | 1005.3 |
| 20260831090005 | 68 | 157 | 0.9 | 2.6 | 0.00 | 0.00 | 0.00 | 91 | 1005.2 |
| 20260831084507 | 69 | 164 | 0.0 | 4.3 | 0.00 | 0.00 | 0.00 | 91 | 1005.0 |
| 20260831083124 | 69 | 190 | 1.7 | 4.3 | 0.00 | 0.00 | 0.00 | 91 | 1004.9 |
| 20260831081517 | 69 | 132 | 1.7 | 3.5 | 0.00 | 0.00 | 0.00 | 90 | 1004.9 |
| 20260831080129 | 70 | 178 | 0.9 | 4.3 | 0.00 | 0.00 | 0.00 | 90 | 1004.9 |
| 20260831074513 | 70 | 166 | 0.9 | 5.2 | 0.00 | 0.00 | 0.00 | 89 | 1005.0 |
| 20260831073124 | 70 | 191 | 0.9 | 6.1 | 0.00 | 0.00 | 0.00 | 89 | 1005.0 |
| 20260831071516 | 70 | 111 | 2.6 | 8.7 | 0.00 | 0.00 | 0.00 | 89 | 1004.9 |
| 20260831070019 | 71 | 150 | 1.7 | 7.8 | 0.00 | 0.00 | 0.00 | 89 | 1005.1 |
| 20260831064511 | 71 | 116 | 3.5 | 7.8 | 0.00 | 0.00 | 0.00 | 88 | 1005.5 |
| 20260831063005 | 71 | 126 | 2.6 | 7.0 | 0.00 | 0.00 | 0.00 | 87 | 1005.6 |
| 20260831061515 | 72 | 141 | 2.6 | 7.8 | 0.00 | 0.00 | 0.00 | 87 | 1005.8 |
| 20260831060017 | 72 | 169 | 2.6 | 7.8 | 0.00 | 0.00 | 0.00 | 87 | 1005.9 |
| 20260831054519 | 72 | 180 | 3.5 | 7.8 | 0.00 | 0.00 | 0.00 | 87 | 1005.8 |
| 20260831053013 | 72 | 108 | 2.6 | 7.8 | 0.00 | 0.00 | 0.00 | 86 | 1006.0 |
| 20260831051518 | 72 | 153 | 2.6 | 7.8 | 0.00 | 0.00 | 0.00 | 87 | 1006.2 |
| 20260831050002 | 72 | 128 | 4.3 | 7.8 | 0.00 | 0.00 | 0.00 | 87 | 1006.4 |
| 20260831044512 | 72 | 131 | 1.7 | 7.0 | 0.00 | 0.00 | 0.00 | 87 | 1006.6 |
| 20260831043121 | 72 | 118 | 1.7 | 5.2 | 0.00 | 0.00 | 0.00 | 88 | 1006.9 |
| 20260831040128 | 71 | 118 | 1.7 | 3.5 | 0.00 | 0.00 | 0.00 | 90 | 1006.9 |
| 20260831034504 | 71 | 102 | 0.9 | 3.5 | 0.00 | 0.00 | 0.00 | 90 | 1006.8 |
| 20260831033126 | 72 | 99 | 0.9 | 2.6 | 0.00 | 0.00 | 0.00 | 89 | 1006.8 |
| 20260831031507 | 72 | 100 | 0.9 | 3.5 | 0.00 | 0.00 | 0.00 | 89 | 1006.8 |
| 20260831030009 | 72 | 99 | 1.7 | 3.5 | 0.00 | 0.00 | 0.00 | 88 | 1006.7 |
| 20260831024622 | 73 | 90 | 0.9 | 3.5 | 0.00 | 0.00 | 0.00 | 87 | 1006.6 |
| 20260831023007 | 73 | 58 | 1.7 | 7.0 | 0.00 | 0.00 | 0.00 | 87 | 1006.7 |
| 20260831021630 | 73 | 93 | 2.6 | 8.7 | 0.00 | 0.00 | 0.00 | 87 | 1006.5 |
| 20260831020006 | 74 | 98 | 4.3 | 8.7 | 0.00 | 0.00 | 0.00 | 86 | 1006.4 |
| 20260831014515 | 74 | 92 | 5.2 | 7.8 | 0.00 | 0.00 | 0.00 | 85 | 1006.4 |
| 20260831013010 | 74 | 88 | 3.5 | 7.8 | 0.00 | 0.00 | 0.00 | 85 | 1006.3 |
| 20260831011510 | 75 | 63 | 2.6 | 8.7 | 0.00 | 0.00 | 0.00 | 85 | 1006.3 |
| 20260831010007 | 75 | 81 | 3.5 | 11.3 | 0.00 | 0.00 | 0.00 | 84 | 1006.2 |
| 20260831004628 | 75 | 71 | 4.3 | 8.7 | 0.00 | 0.00 | 0.00 | 83 | 1006.4 |
| 20260831003124 | 76 | 46 | 2.6 | 8.7 | 0.00 | 0.00 | 0.00 | 82 | 1006.5 |
| 20260831001621 | 76 | 109 | 2.6 | 8.7 | 0.00 | 0.00 | 0.00 | 82 | 1006.6 |